Volver al catálogo

STARLINK-1572

ActivoComunicacionesVLEO
NORAD 46060·PAYLOAD·🇺🇸 United States

Lanzado Aug 7, 2020 desde Cape Canaveral Space Force Station

Loading…

Próximos Pases (próximas 24 horas)

TLE

ActualizadoSource: CelesTrak SupGP

Época: Sep 14, 2026, 21:18 UTC

1 46060C 20055AK  26257.88798611 -.00015662  00000+0 -50360-3 0  2573
2 46060  53.1577 314.9820 0001077  94.5658 112.1546 15.31712274    19

Sigue STARLINK-1572 en tiempo real con AllMySat

Download on the App Store